Reading, PA

7:25 AM EST on November 18, 2017 (GMT -0500)
Reading Regional-Spaatz

Weather History for KRDG - September, 2012

Change the Weather History Date:

Monday, September 3, 2012

  Actual Average Record
Temperature  
Mean Temperature 74 °F 70 °F  
Max Temperature 76 °F 80 °F 97 °F (1980)
Min Temperature 72 °F 60 °F 45 °F (1976)
Degree Days  
Heating Degree Days 0 0  
Month to date heating degree days 0 0  
Since 1 July heating degree days 0 5  
Cooling Degree Days 9 5  
Month to date cooling degree days 31 17  
Year to date cooling degree days 1180 820  
Growing Degree Days 24 (Base 50)    
Moisture  
Dew Point 69 °F    
Average Humidity 83    
Maximum Humidity 87    
Minimum Humidity 79    
Precipitation  
Precipitation 0.04 in 0.11 in 2.20 in (1963)
Month to date precipitation 0.41 0.31  
Year to date precipitation 22.30 29.27  
Sea Level Pressure  
Sea Level Pressure 30.07 in    
Wind  
Wind Speed 5 mph (ESE)    
Max Wind Speed 14 mph    
Max Gust Speed 20 mph    
Visibility 10 miles    
Events Rain    
T = Trace of Precipitation, MM = Missing Value Source: NWS Daily Summary

Daily Weather History Graph

Daily Weather History Graph

Search for Another Location

Airport or City:

Trip Planner

Search our weather history database for the weather conditions in past years. The results will help you decide how hot, cold, wet, or windy it might be!

Date:

Astronomy

Sep. 03, 2012 Rise Set
Actual Time 6:33 AM EDT 7:31 PM EDT
Civil Twilight 6:05 AM EDT 7:59 PM EDT
Nautical Twilight 5:32 AM EDT 8:32 PM EDT
Astronomical Twilight 4:58 AM EDT 9:06 PM EDT
Moon 8:48 PM EDT (9/3) 9:40 AM EDT (9/3)
Length of Visible Light 13h 53m
Length of Day
12h 58m
Waning Gibbous, 90% of the Moon is Illuminated
Sep 3
Waning Gibbous
Sep 8
Last Quarter
Sep 15
New
Sep 22
First Quarter
Sep 29
Full

Hourly Weather History & Observations

Time (EDT) Temp. Dew Point Humidity Pressure Visibility Wind Dir Wind Speed Gust Speed Precip Events Conditions
12:49 AM 73.4 °F 68.0 °F 83% 30.05 in 10.0 mi ESE 3.5 mph - 0.01 in Rain Light Rain
12:54 AM 73.0 °F 69.1 °F 87% 30.06 in 10.0 mi Calm Calm - 0.01 in   Overcast
1:04 AM 73.4 °F 69.8 °F 88% 30.05 in 10.0 mi Calm Calm - N/A   Overcast
1:54 AM 73.0 °F 69.1 °F 87% 30.06 in 10.0 mi Calm Calm - N/A   Overcast
2:54 AM 73.0 °F 69.1 °F 87% 30.05 in 10.0 mi East 5.8 mph - N/A   Overcast
3:12 AM 73.4 °F 69.8 °F 88% 30.04 in 10.0 mi East 3.5 mph - N/A   Overcast
3:54 AM 73.0 °F 68.0 °F 84% 30.06 in 10.0 mi East 3.5 mph - N/A   Overcast
4:54 AM 73.0 °F 66.9 °F 81% 30.05 in 10.0 mi Variable 5.8 mph - N/A   Overcast
5:05 AM 73.4 °F 66.2 °F 78% 30.05 in 10.0 mi ESE 6.9 mph - N/A   Overcast
5:54 AM 73.0 °F 68.0 °F 84% 30.07 in 4.0 mi Calm Calm - 0.02 in Rain Light Rain
6:54 AM 73.0 °F 68.0 °F 84% 30.08 in 10.0 mi ESE 5.8 mph - 0.02 in   Overcast
7:02 AM 73.4 °F 68.0 °F 83% 30.07 in 10.0 mi SE 5.8 mph - N/A   Overcast
7:36 AM 73.4 °F 68.0 °F 83% 30.08 in 10.0 mi Variable 5.8 mph - N/A   Overcast
7:54 AM 73.0 °F 66.9 °F 81% 30.09 in 10.0 mi Variable 4.6 mph - N/A   Overcast
8:46 AM 73.4 °F 66.2 °F 78% 30.09 in 10.0 mi Variable 4.6 mph - N/A   Overcast
8:54 AM 73.0 °F 66.9 °F 81% 30.09 in 10.0 mi ESE 4.6 mph - N/A   Overcast
9:54 AM 73.9 °F 68.0 °F 82% 30.10 in 10.0 mi ESE 4.6 mph - N/A   Overcast
10:54 AM 75.0 °F 69.1 °F 82% 30.10 in 10.0 mi SE 8.1 mph 17.3 mph N/A   Overcast
11:54 AM 73.9 °F 68.0 °F 82% 30.10 in 10.0 mi ESE 10.4 mph 17.3 mph N/A   Overcast
12:31 PM 73.4 °F 68.0 °F 83% 30.09 in 8.0 mi SE 10.4 mph - N/A   Overcast
12:54 PM 73.9 °F 68.0 °F 82% 30.09 in 8.0 mi ESE 8.1 mph - N/A   Overcast
1:49 PM 73.4 °F 68.0 °F 83% 30.09 in 10.0 mi SE 3.5 mph - N/A   Overcast
1:54 PM 73.9 °F 68.0 °F 82% 30.09 in 10.0 mi East 6.9 mph - N/A   Overcast
2:38 PM 75.2 °F 68.0 °F 78% 30.08 in 10.0 mi East 5.8 mph 16.1 mph N/A   Overcast
2:54 PM 75.9 °F 69.1 °F 79% 30.08 in 10.0 mi ESE 5.8 mph - N/A   Overcast
3:54 PM 75.0 °F 69.1 °F 82% 30.07 in 10.0 mi ESE 6.9 mph - N/A   Overcast
4:35 PM 73.4 °F 69.8 °F 88% 30.06 in 10.0 mi ESE 5.8 mph 16.1 mph 0.00 in Rain Light Rain
4:54 PM 73.9 °F 69.1 °F 85% 30.07 in 10.0 mi Variable 6.9 mph - 0.00 in   Overcast
5:06 PM 73.4 °F 69.8 °F 88% 30.06 in 10.0 mi East 3.5 mph - N/A   Overcast
5:42 PM 73.4 °F 69.8 °F 88% 30.06 in 10.0 mi Variable 5.8 mph - N/A   Overcast
5:54 PM 73.0 °F 70.0 °F 90% 30.06 in 10.0 mi ESE 5.8 mph - 0.00 in Rain Light Rain
6:54 PM 73.9 °F 70.0 °F 87% 30.05 in 10.0 mi East 4.6 mph - 0.00 in   Overcast
7:54 PM 73.0 °F 69.1 °F 87% 30.05 in 10.0 mi East 6.9 mph - N/A   Overcast
8:54 PM 73.0 °F 69.1 °F 87% 30.06 in 10.0 mi East 8.1 mph - N/A   Overcast
9:54 PM 73.0 °F 69.1 °F 87% 30.07 in 10.0 mi SE 4.6 mph - N/A   Overcast
10:54 PM 73.0 °F 69.1 °F 87% 30.07 in 10.0 mi Calm Calm - N/A   Overcast
11:02 PM 73.4 °F 69.8 °F 88% 30.06 in 10.0 mi Calm Calm - N/A   Overcast
11:13 PM 73.4 °F 69.8 °F 88% 30.06 in 10.0 mi Calm Calm - N/A   Overcast
11:47 PM 73.4 °F 69.8 °F 88% 30.07 in 10.0 mi East 3.5 mph - N/A   Overcast
11:54 PM 73.0 °F 70.0 °F 90% 30.07 in 10.0 mi East 5.8 mph - N/A   Overcast